Date String (YYYY-MM-DD hh:mm:ss) UTC,Instrument flags,Ambient pressure (hPa),Sample flow (lpm),Bypass flow (lpm),Sample temperature (°C),Ambient temperature (°C),ASC tube jacket temperature (°C),LED temperature (°C),Box temperature (°C),Sample RH (%),Span deviation,Mass concentration (μg/m³),Mass concentration (μg/m³),Mass concentration (μg/m³)
DateTimeUTC,F1_M11,P_M11,Q1_M11,Q2_M11,T1_M11,T2_M11,T3_M11,T4_M11,T5_M11,U1_M11,ZSPAN_M11,X0_M11,X2_M11,X1_M11
2022-02-23 15:00:00,,0827.7,5.01,0.00,22.1,21.1,00.0,31.2,23.7,03.1,0000.0,0005.20,0003.49,0003.18
2022-02-23 15:01:00,,0827.7,4.99,0.00,22.2,21.9,00.0,31.3,23.8,03.1,0000.0,0005.08,0003.48,0003.19
2022-02-23 15:02:00,,0827.7,5.02,0.00,22.3,22.7,00.0,31.3,24.1,03.1,0000.0,0005.02,0003.47,0003.20
2022-02-23 15:03:00,,0827.7,4.98,0.00,22.5,23.2,00.0,31.3,24.3,03.1,0000.0,0004.95,0003.46,0003.19
2022-02-23 15:04:00,,0827.7,4.99,0.00,22.5,22.8,00.0,31.3,24.3,03.1,0000.0,0005.01,0003.47,0003.19
2022-02-23 15:05:00,,0827.7,5.01,0.00,22.4,22.2,00.0,31.3,24.1,03.1,0000.0,0005.03,0003.47,0003.19
2022-02-23 15:06:00,,0827.6,5.00,0.00,22.3,21.7,00.0,31.3,23.9,03.1,0000.0,0004.89,0003.46,0003.18
2022-02-23 15:07:00,,0827.6,5.00,0.00,22.2,21.1,00.0,31.3,23.8,03.1,0000.0,0004.78,0003.44,0003.18
2022-02-23 15:08:00,,0827.6,5.00,0.00,22.2,21.1,00.0,31.2,23.6,03.1,0000.0,0004.65,0003.43,0003.16
2022-02-23 15:09:00,,0827.6,5.01,0.00,22.2,21.9,00.0,31.3,23.8,03.1,0000.0,0004.60,0003.43,0003.16
2022-02-23 15:10:00,,0827.7,5.00,0.00,22.3,22.7,00.0,31.3,24.1,03.1,0000.0,0004.70,0003.45,0003.16
2022-02-23 15:11:00,,0827.7,5.01,0.00,22.5,23.2,00.0,31.3,24.3,03.1,0000.0,0004.65,0003.44,0003.16
2022-02-23 15:12:00,,0827.7,4.99,0.00,22.5,22.8,00.0,31.3,24.3,03.1,0000.0,0004.61,0003.42,0003.14
2022-02-23 15:13:00,,0827.7,5.01,0.00,22.4,22.2,00.0,31.3,24.1,03.1,0000.0,0004.62,0003.39,0003.11
2022-02-23 15:14:00,,0827.7,5.00,0.00,22.3,21.6,00.0,31.3,23.9,03.1,0000.0,0004.67,0003.40,0003.10
2022-02-23 15:15:00,,0827.7,5.00,0.00,22.2,21.2,00.0,31.3,23.8,03.1,0000.0,0004.84,0003.42,0003.09
2022-02-23 15:16:00,,0827.7,4.99,0.00,22.2,20.9,00.0,31.2,23.6,03.2,0000.0,0005.12,0003.44,0003.09
2022-02-23 15:17:00,,0827.7,5.00,0.00,22.1,21.4,00.0,31.2,23.7,03.2,0000.0,0005.24,0003.46,0003.10
2022-02-23 15:18:00,,0827.7,5.02,0.00,22.2,22.2,00.0,31.3,23.9,03.2,0000.0,0005.33,0003.49,0003.11
2022-02-23 15:19:00,,0827.7,5.00,0.00,22.4,22.9,00.0,31.3,24.2,03.2,0000.0,0005.38,0003.49,0003.11
2022-02-23 15:20:00,,0827.7,4.99,0.00,22.5,23.1,00.0,31.3,24.3,03.2,0000.0,0005.44,0003.49,0003.10
2022-02-23 15:21:00,,0827.7,4.99,0.00,22.5,22.5,00.0,31.3,24.2,03.3,0000.0,0005.48,0003.49,0003.09
2022-02-23 15:22:00,,0827.6,5.00,0.00,22.4,21.9,00.0,31.3,24.0,03.3,0000.0,0005.51,0003.48,0003.07
2022-02-23 15:23:00,,0827.7,5.00,0.00,22.3,21.4,00.0,31.3,23.9,03.3,0000.0,0005.45,0003.48,0003.05
2022-02-23 15:24:00,,0827.7,5.00,0.00,22.2,21.1,00.0,31.3,23.7,03.4,0000.0,0005.42,0003.47,0003.05
2022-02-23 15:25:00,,0827.7,5.00,0.00,22.2,21.5,00.0,31.3,23.7,03.4,0000.0,0005.58,0003.50,0003.04
2022-02-23 15:26:00,,0827.7,5.00,0.00,22.3,22.4,00.0,31.3,24.0,03.4,0000.0,0005.44,0003.47,0003.03
2022-02-23 15:27:00,,0827.7,5.01,0.00,22.4,23.1,00.0,31.3,24.3,03.4,0000.0,0005.30,0003.45,0003.00
2022-02-23 15:28:00,,0827.7,5.01,0.00,22.6,23.3,00.0,31.4,24.5,03.4,0000.0,0005.22,0003.42,0002.97
2022-02-23 15:29:00,,0827.7,4.99,0.00,22.6,22.8,00.0,31.4,24.4,03.3,0000.0,0005.26,0003.41,0002.95
2022-02-23 15:30:00,,0827.6,5.01,0.00,22.5,22.3,00.0,31.4,24.2,03.3,0000.0,0005.32,0003.41,0002.94
2022-02-23 15:31:00,,0827.7,4.98,0.00,22.4,21.9,00.0,31.4,24.1,03.3,0000.0,0005.30,0003.42,0002.94
2022-02-23 15:32:00,,0827.7,5.00,0.00,22.4,21.5,00.0,31.3,24.0,03.3,0000.0,0005.32,0003.41,0002.93
2022-02-23 15:33:00,,0827.7,5.00,0.00,22.3,21.2,00.0,31.3,23.8,03.3,0000.0,0005.21,0003.38,0002.91
2022-02-23 15:34:00,,0827.7,5.01,0.00,22.2,21.1,00.0,31.3,23.8,03.3,0000.0,0005.99,0003.38,0002.92
2022-02-23 15:35:00,,0827.7,5.00,0.00,22.3,21.8,00.0,31.3,23.9,03.3,0000.0,0006.30,0003.40,0002.94
2022-02-23 15:36:00,,0827.6,4.99,0.00,22.4,22.7,00.0,31.3,24.1,03.2,0000.0,0006.23,0003.38,0002.93
2022-02-23 15:37:00,,0827.7,5.00,0.00,22.5,23.4,00.0,31.4,24.4,03.2,0000.0,0006.13,0003.36,0002.93
2022-02-23 15:38:00,,0827.6,4.99,0.00,22.6,23.2,00.0,31.4,24.5,03.2,0000.0,0005.95,0003.35,0002.94
2022-02-23 15:39:00,,0827.7,4.99,0.00,22.6,22.7,00.0,31.4,24.4,03.2,0000.0,0005.86,0003.36,0002.95
2022-02-23 15:40:00,,0827.6,5.01,0.00,22.5,22.1,00.0,31.4,24.2,03.2,0000.0,0005.71,0003.34,0002.96
2022-02-23 15:41:00,,0827.6,5.00,0.00,22.4,21.7,00.0,31.4,24.1,03.2,0000.0,0005.61,0003.33,0002.97
2022-02-23 15:42:00,,0827.6,4.99,0.00,22.3,21.4,00.0,31.3,23.9,03.2,0000.0,0005.67,0003.34,0002.98
2022-02-23 15:43:00,,0827.5,5.02,0.00,22.3,21.1,00.0,31.3,23.8,03.2,0000.0,0005.49,0003.33,0003.00
2022-02-23 15:44:00,,0827.5,5.00,0.00,22.2,21.4,00.0,31.3,23.8,03.2,0000.0,0005.55,0003.33,0003.02
2022-02-23 15:45:00,,0827.5,4.99,0.00,22.3,22.3,00.0,31.4,24.1,03.2,0000.0,0005.99,0003.35,0003.03
2022-02-23 15:46:00,,0827.5,5.00,0.00,22.5,23.0,00.0,31.4,24.3,03.2,0000.0,0005.77,0003.34,0003.03
2022-02-23 15:47:00,,0827.4,4.99,0.00,22.5,22.9,00.0,31.4,24.4,03.1,0000.0,0005.79,0003.34,0003.04
2022-02-23 15:48:00,,0827.4,5.01,0.00,22.5,22.5,00.0,31.4,24.3,03.1,0000.0,0005.87,0003.36,0003.05
2022-02-23 15:49:00,,0827.4,5.00,0.00,22.5,22.1,00.0,31.4,24.2,03.1,0000.0,0006.00,0003.37,0003.05
2022-02-23 15:50:00,,0827.4,5.00,0.00,22.4,21.8,00.0,31.4,24.1,03.1,0000.0,0005.89,0003.34,0003.04
2022-02-23 15:51:00,,0827.2,5.00,0.00,22.3,21.5,00.0,31.3,23.9,03.1,0000.0,0005.98,0003.35,0003.04
2022-02-23 15:52:00,,0827.6,4.99,0.00,22.3,21.3,00.0,31.3,23.8,03.1,0000.0,0006.08,0003.37,0003.04
2022-02-23 15:53:00,,0827.1,5.01,0.00,22.3,21.9,00.0,31.3,23.9,03.1,0000.0,0006.03,0003.36,0003.04
2022-02-23 15:54:00,,0827.1,4.99,0.00,22.4,22.7,00.0,31.4,24.2,03.1,0000.0,0006.02,0003.36,0003.02
2022-02-23 15:55:00,,0827.1,5.01,0.00,22.6,23.4,00.0,31.4,24.5,03.0,0000.0,0006.03,0003.36,0003.03
2022-02-23 15:56:00,,0827.1,5.00,0.00,22.7,23.3,00.0,31.5,24.6,03.0,0000.0,0005.54,0003.36,0003.02
2022-02-23 15:57:00,,0827.0,4.98,0.00,22.7,22.8,00.0,31.5,24.5,03.0,0000.0,0004.95,0003.37,0003.01
2022-02-23 15:58:00,,0827.0,5.00,0.00,22.6,22.3,00.0,31.5,24.3,03.0,0000.0,0005.17,0003.35,0003.00
2022-02-23 15:59:00,,0827.0,5.00,0.00,22.5,21.9,00.0,31.4,24.2,03.0,0000.0,0005.09,0003.34,0002.98
